TimeCST,TemperatureF,Dew PointF,Humidity,Sea Level PressureIn,VisibilityMPH,Wind Direction,Wind SpeedMPH,Gust SpeedMPH,PrecipitationIn,Events,Conditions,WindDirDegrees,DateUTC
12:56 AM,26.1,24.1,92,30.04,10.0,Calm,Calm,-,N/A,,Clear,0,2013-02-24 06:56:00
1:56 AM,26.1,23.0,88,30.04,10.0,Calm,Calm,-,N/A,,Clear,0,2013-02-24 07:56:00
2:56 AM,22.1,20.1,92,30.07,8.0,Calm,Calm,-,N/A,,Clear,0,2013-02-24 08:56:00
3:56 AM,20.1,19.0,96,30.07,7.0,Calm,Calm,-,N/A,,Clear,0,2013-02-24 09:56:00
4:56 AM,22.1,21.0,96,30.10,8.0,Calm,Calm,-,N/A,,Clear,0,2013-02-24 10:56:00
6:56 AM,22.1,22.1,100,30.14,4.0,Calm,Calm,-,N/A,,Clear,0,2013-02-24 12:56:00
7:56 AM,30.0,28.0,92,30.16,5.0,Calm,Calm,-,N/A,,Clear,0,2013-02-24 13:56:00
8:56 AM,34.0,28.0,79,30.17,9.0,Calm,Calm,-,N/A,,Clear,0,2013-02-24 14:56:00
9:56 AM,37.9,27.1,65,30.18,10.0,Calm,Calm,-,N/A,,Clear,0,2013-02-24 15:56:00
10:56 AM,43.0,24.1,47,30.18,10.0,SSE,6.9,-,N/A,,Clear,160,2013-02-24 16:56:00
11:56 AM,45.9,24.1,42,30.17,10.0,SSW,10.4,-,N/A,,Clear,200,2013-02-24 17:56:00
12:56 PM,47.8,23.0,38,30.14,10.0,SSE,6.9,-,N/A,,Clear,150,2013-02-24 18:56:00
1:56 PM,48.9,22.1,35,30.13,10.0,SSW,5.8,-,N/A,,Clear,200,2013-02-24 19:56:00
2:56 PM,50.0,23.0,35,30.13,10.0,Variable,3.5,-,N/A,,Clear,0,2013-02-24 20:56:00
3:56 PM,50.0,22.1,33,30.12,10.0,Calm,Calm,-,N/A,,Clear,0,2013-02-24 21:56:00
4:56 PM,46.9,24.1,41,30.13,10.0,SW,4.6,-,N/A,,Clear,230,2013-02-24 22:56:00
5:56 PM,34.0,24.1,67,30.15,10.0,Calm,Calm,-,N/A,,Clear,0,2013-02-24 23:56:00
6:56 PM,32.0,25.2,76,30.17,10.0,Calm,Calm,-,N/A,,Clear,0,2013-02-25 00:56:00
7:56 PM,27.1,23.0,84,30.17,3.0,Calm,Calm,-,N/A,,Clear,0,2013-02-25 01:56:00
8:56 PM,26.1,24.1,92,30.15,5.0,Calm,Calm,-,N/A,,Clear,0,2013-02-25 02:56:00
9:05 PM,26.6,23.0,86,30.11,2.5,Calm,Calm,-,N/A,,Clear,0,2013-02-25 03:05:00
9:26 PM,24.8,21.2,86,30.11,10.0,Calm,Calm,-,N/A,,Clear,0,2013-02-25 03:26:00
9:56 PM,25.2,22.1,88,30.14,10.0,Calm,Calm,-,N/A,,Clear,0,2013-02-25 03:56:00
10:56 PM,30.0,24.1,79,30.13,10.0,Calm,Calm,-,N/A,,Clear,0,2013-02-25 04:56:00
11:56 PM,24.1,21.0,88,30.13,10.0,Calm,Calm,-,N/A,,Clear,0,2013-02-25 05:56:00